Location: Cz?stochówka
(50.8142°N, 19.0915°E)
Time: 09:12:16
(UTC+00:00)

Meteor 1-11 Rocket - Pass Details

Date: 13 January 2026
Orbit: 830 x 914 km, 81.2° (Epoch: 17 February)

Event Time Altitude Azimuth Distance (km) Brightness Sun altitude
Exits shadow 03:30:55 69° 167° (SSE) 956 3.9 -29.2°
Maximum altitude 03:31:38 81° 101° (E) 906 3.8 -29.1°
Drops below altitude 10° 03:37:26 10° 14° (NNE) 2,539 6.3 -28.2°
Sets 03:39:51 0° 14° (NNE) 3,468 7.1 -27.8°
